SCP
0 0 0 0 0 0 0 0 0 0 0 0 0 0 0 0 0 0 0 0 0 0 0 1 1 1 1 0 0 0 0 0 0 0 0 0 0 0 0 0 0 0 0 0 0 0 0 0 0
0 0 0 0 0 0 0 0 0 0 0 0 0 0 0 0 0 0 0 0 0 0 0 1 1 1 1 0 0 0 0 0 0 0 0 0 0 0 0 0 0 0 0 0 0 0 0 0 0
0 0 0 0 0 0 0 0 0 0 0 0 0 0 0 0 0 0 0 0 0 0 0 1 1 1 1 1 0 0 0 0 0 0 0 0 0 0 0 0 0 0 0 0 0 0 0 0 0
0 0 0 0 0 0 0 0 0 0 0 0 0 0 0 0 0 0 0 0 0 0 1 1 1 1 1 1 1 1 0 0 0 0 0 0 0 0 0 0 0 0 0 0 0 0 0 0 0
0 0 0 0 0 0 0 0 0 0 0 0 0 0 0 0 0 0 0 0 0 1 1 1 1 1 1 1 1 1 1 0 0 0 0 0 0 0 0 0 0 0 0 0 0 0 0 0 0
0 0 0 0 0 0 0 0 0 0 0 0 0 0 0 0 0 0 0 0 0 1 1 1 1 1 1 1 1 1 1 1 1 1 1 1 0 0 0 0 0 0 0 0 0 0 0 0 0
0 0 0 0 0 0 0 0 0 0 0 0 0 0 0 0 0 0 0 0 0 1 1 1 1 1 1 1 1 1 1 1 1 1 1 1 1 0 0 0 0 0 0 0 0 0 0 0 1
0 0 0 0 0 0 0 0 0 0 0 0 0 0 0 0 0 0 0 0 1 1 1 1 1 1 1 1 1 1 1 1 1 1 1 1 1 0 0 1 1 0 0 0 1 1 1 1 1
0 0 0 0 0 0 0 0 0 0 0 0 0 0 0 0 0 1 1 1 1 1 1 1 1 1 1 1 1 1 1 1 1 1 1 1 0 0 0 1 1 1 1 1 1 1 1 1 1
0 0 0 0 0 0 0 0 0 0 0 0 0 0 0 0 1 1 1 1 1 1 1 1 1 1 1 1 1 1 1 1 1 1 1 1 1 0 0 0 1 1 1 1 1 1 1 1 1
0 0 0 0 0 0 0 0 0 0 0 0 0 0 0 0 1 1 1 2 2 2 1 1 1 1 1 1 1 1 1 1 1 1 1 1 1 1 0 1 1 1 1 1 1 1 1 1 1
0 0 0 0 0 0 0 0 0 0 0 1 1 1 1 1 1 1 1 2 2 2 2 2 2 2 1 1 1 1 1 1 1 1 1 1 1 1 1 1 1 1 1 1 1 1 1 1 1
0 0 0 0 0 0 0 0 0 0 1 1 1 2 2 2 2 2 2 3 3 3 3 2 2 2 2 2 2 2 2 2 2 2 2 2 2 1 1 1 1 1 2 2 2 2 1 1 1
0 0 0 0 0 0 0 0 0 0 1 2 3 4 4 4 4 4 4 4 4 4 4 3 3 2 3 3 3 3 3 2 2 2 2 2 2 2 2 2 2 2 2 2 2 2 1 1 1
0 0 0 0 0 0 0 0 0 1 2 3 4 6 7 7 7 6 6 5 5 6 6 6 4 4 4 5 5 5 4 4 3 3 3 3 3 3 3 3 2 2 3 3 2 2 2 2 2
0 0 0 0 0 0 0 0 1 2 3 4 6 7 9 10 9 9 9 8 7 7 8 8 7 6 6 6 6 6 6 5 4 3 3 3 4 4 4 3 3 3 4 3 3 3 2 2 2
0 0 0 0 0 0 0 0 1 2 3 5 7 9 10 11 11 10 10 9 7 7 8 9 8 7 7 7 7 7 6 5 4 4 4 4 4 5 5 5 4 4 5 4 4 4 3 3 2
0 0 0 0 0 0 0 0 0 1 3 5 7 9 10 11 10 10 9 8 7 7 8 9 9 8 7 7 7 6 5 5 4 4 4 4 4 5 6 6 6 5 5 5 5 4 4 3 2
0 0 0 0 0 0 0 0 0 1 3 5 8 9 10 10 10 10 9 8 7 8 8 9 9 9 8 7 7 6 5 5 4 4 4 4 4 5 6 6 6 6 6 5 5 5 4 3 3
0 0 0 0 0 0 0 0 1 1 3 5 8 9 9 9 10 10 10 9 9 9 9 9 9 10 9 7 6 6 5 5 4 4 3 3 4 4 5 6 6 6 6 6 6 4 4 3 3
0 0 0 0 0 0 0 0 1 1 3 5 7 8 8 8 8 8 8 8 9 9 9 8 8 9 8 6 5 5 5 4 4 3 3 3 3 4 5 5 5 5 6 6 6 5 4 3 2
0 0 0 0 0 0 0 0 0 1 2 4 5 7 7 7 6 5 6 6 7 8 7 7 7 6 6 5 4 4 4 3 3 3 3 3 3 4 4 5 5 5 5 5 5 4 4 3 3
0 0 0 0 0 0 0 0 0 1 1 2 4 5 6 5 5 4 5 6 6 6 5 5 5 4 4 4 3 3 3 3 2 2 3 3 3 3 3 4 4 4 4 4 4 4 4 4 3
0 0 0 0 0 0 0 0 0 0 1 2 2 3 4 4 4 4 4 5 5 5 4 4 3 3 3 3 2 2 2 2 2 2 2 2 2 2 2 3 3 4 4 4 3 3 3 3 3
0 0 0 0 0 0 0 0 0 0 1 1 2 2 3 3 3 3 4 4 4 4 4 4 3 3 3 2 2 2 1 1 1 1 1 1 1 2 2 2 3 3 3 3 3 3 3 3 3
0 0 0 0 0 0 0 0 0 0 1 1 1 2 3 3 3 3 3 4 4 4 4 4 3 3 2 2 2 2 1 1 1 1 1 1 1 1 2 2 2 3 3 3 3 3 2 2 2
0 0 0 0 0 0 0 0 0 0 0 1 1 2 2 3 2 2 3 4 4 4 4 4 4 3 2 2 2 2 1 1 1 1 1 1 1 1 1 1 2 2 3 3 3 3 2 2 2
0 0 0 0 0 0 0 0 0 0 0 0 0 1 1 2 2 2 3 4 4 4 4 4 4 3 2 2 3 2 1 1 1 1 0 0 0 0 0 1 1 2 2 2 3 2 2 1 1
0 0 0 0 0 0 0 0 0 0 0 0 0 0 0 1 1 2 3 3 3 3 3 4 3 2 2 2 3 2 1 1 1 0 0 0 0 0 0 0 1 1 2 2 2 2 1 1 1
0 0 0 0 0 0 0 0 0 0 0 0 0 0 0 0 0 1 2 2 3 3 3 3 3 2 2 2 3 2 1 1 0 0 0 0 0 0 0 0 1 1 2 2 2 2 1 1 1
Wind_Speed
4 3 3 1 2 3 1 2 4 6 6 7 9 10 8 5 3 4 5 16 18 16 13 17 19 19 17 16 15 15 14 14 14 13 13 12 12 11 11 10 10 10 10 9 9 8 8 8 8
2 3 3 1 4 3 2 2 4 5 7 9 9 9 7 6 8 10 8 16 20 16 12 15 20 19 17 16 15 15 14 14 13 13 12 12 11 10 10 9 9 9 8 8 8 7 7 6 5
3 3 2 2 2 1 2 1 2 4 6 6 6 5 5 7 9 7 10 18 17 14 10 15 21 20 18 16 15 15 14 14 13 13 12 12 11 10 10 9 8 8 8 7 7 6 6 5 4
1 2 3 3 2 3 2 3 1 5 7 6 8 6 4 5 7 12 19 19 17 12 10 15 21 20 18 17 16 15 14 14 13 13 12 12 11 10 10 9 8 8 7 7 7 6 6 6 5
3 3 4 3 4 2 3 3 2 5 5 6 9 6 4 5 17 22 20 19 18 12 9 13 20 20 18 17 16 15 15 14 13 13 12 12 11 11 10 10 9 8 8 7 7 7 7 7 7
3 4 3 3 4 3 3 3 5 9 9 9 9 6 3 10 18 19 18 16 17 16 11 12 20 20 19 17 16 16 15 14 14 13 12 12 11 11 10 10 10 9 9 8 8 8 8 8 8
3 2 1 4 4 2 1 3 7 8 7 7 9 7 5 10 15 17 16 15 14 15 13 10 11 14 18 18 17 16 15 14 14 13 13 12 12 11 11 11 11 11 11 11 10 10 10 10 10
4 3 3 4 3 3 4 2 5 8 7 9 8 10 8 11 14 15 14 13 13 12 11 10 9 8 9 11 16 17 16 15 15 14 14 13 13 12 12 11 11 13 13 13 13 13 13 12 11
2 4 2 3 4 5 5 3 2 3 7 5 4 7 11 14 16 16 12 10 10 11 10 10 10 8 8 8 13 14 15 15 14 13 15 13 6 6 7 11 14 15 15 15 15 14 14 13 12
4 3 6 5 4 4 5 4 2 5 7 5 6 7 13 14 16 17 16 15 14 13 12 11 11 10 9 9 8 6 7 7 8 6 7 6 5 6 8 10 17 17 17 17 17 16 14 11 6
3 6 6 6 5 3 4 5 3 6 3 7 12 14 15 13 13 14 15 16 16 15 14 12 12 11 10 7 6 5 4 5 6 7 7 6 5 5 6 5 8 11 14 10 9 10 7 6 6
3 7 7 6 4 3 2 4 4 2 5 9 15 18 17 15 15 15 15 15 14 14 15 14 13 12 11 8 6 6 5 5 6 8 9 7 5 6 6 5 6 6 5 6 6 5 7 8 8
5 7 7 6 5 3 3 3 3 3 3 9 13 14 15 15 14 12 11 13 14 15 15 15 13 13 11 9 6 8 7 7 8 8 9 10 8 7 7 6 6 7 6 6 6 7 8 8 8
5 5 6 6 6 4 2 4 3 5 4 9 12 12 12 13 11 8 7 9 12 14 14 14 14 13 11 9 8 7 8 7 7 8 10 12 9 8 7 6 6 6 6 7 7 8 7 7 6
5 5 8 7 5 4 2 6 6 5 5 9 10 9 8 6 6 7 7 6 7 9 10 12 14 12 11 10 10 8 7 7 7 8 10 11 11 10 8 7 6 6 6 6 6 7 5 5 6
5 4 5 9 5 6 3 6 7 0 8 7 7 8 8 6 6 4 4 4 3 4 5 8 10 10 10 8 7 5 5 5 5 5 6 10 12 11 9 7 7 6 5 5 5 4 4 4 4
5 3 7 12 7 5 6 5 4 3 9 8 7 8 9 9 7 6 6 5 4 4 4 4 3 5 6 4 2 3 3 3 3 3 4 6 9 10 8 7 6 6 5 5 5 4 4 4 5
4 4 4 6 7 3 5 3 1 3 8 7 8 9 10 10 7 7 8 7 6 6 5 3 2 1 1 1 1 3 5 4 3 3 4 5 5 7 7 6 7 6 4 4 4 5 4 4 4
5 3 4 5 6 5 4 2 1 2 4 6 7 9 10 8 6 7 8 8 8 7 6 4 3 2 1 1 1 3 4 4 4 4 5 5 5 6 6 6 6 5 5 6 6 5 5 4 3
1 3 4 5 7 5 3 3 4 3 0 4 7 9 9 7 6 7 7 7 7 6 5 4 3 2 0 1 2 3 4 4 4 4 5 6 6 6 6 7 6 6 6 7 7 6 4 4 4
3 2 2 3 5 6 5 7 7 7 5 5 6 6 7 9 7 6 6 6 6 6 5 4 3 2 1 1 1 2 2 3 3 3 3 5 6 6 6 7 6 6 7 7 8 8 8 6 4
2 2 3 5 5 4 3 2 7 4 4 4 5 5 5 5 6 6 6 5 5 4 4 4 3 2 1 1 0 1 1 3 4 3 4 5 5 6 6 6 7 7 6 8 8 8 6 6 6
2 2 4 4 2 3 4 1 7 3 1 1 3 4 4 5 6 6 6 5 5 5 5 4 3 2 1 1 0 0 2 3 3 3 5 5 5 5 5 5 5 6 6 7 8 7 7 7 7
2 6 8 7 5 2 4 1 6 4 4 3 3 3 5 6 6 6 5 5 4 4 4 4 4 2 2 1 0 0 2 3 4 5 5 5 4 4 5 5 5 6 6 7 8 8 8 8 8
6 7 6 7 6 4 4 1 7 6 5 6 6 6 7 7 7 7 7 6 5 5 5 5 5 3 2 2 1 0 1 2 3 4 4 5 4 4 6 6 6 6 6 7 7 7 8 8 8
1 8 7 3 4 6 4 2 6 4 6 7 8 8 8 7 7 8 8 8 7 7 6 6 5 4 3 2 1 1 0 1 1 2 3 4 4 5 6 7 7 7 6 6 6 5 7 6 7
1 2 8 7 1 2 4 3 4 2 3 5 7 7 8 8 9 8 8 7 7 7 7 7 6 5 4 3 2 1 1 0 1 2 3 3 4 5 6 7 7 6 6 5 5 5 6 6 6
3 3 5 4 2 3 5 4 4 6 7 5 5 6 7 7 6 6 7 7 7 7 6 6 6 6 4 4 3 2 1 0 1 2 3 4 5 5 6 6 6 5 4 4 3 3 3 4 5
3 2 3 3 5 5 3 7 5 6 5 5 5 4 4 4 5 5 6 6 6 6 6 6 6 5 4 4 3 3 2 1 0 1 2 3 4 5 6 6 6 5 3 2 1 1 0 1 2
2 2 5 3 4 5 4 7 8 2 2 1 3 4 4 3 3 3 4 4 5 6 6 6 6 6 5 5 4 4 3 2 1 1 2 3 4 5 5 6 5 5 3 2 1 2 4 5 5
Wind_Direction
243 194 135 84 52 34 7 72 92 71 62 73 82 86 87 73 129 149 125 141 139 145 149 147 147 148 149 148 147 146 145 143 140 138 136 135 133 131 128 126 124 123 122 121 120 119 117 117 117
239 186 131 58 57 28 336 77 81 103 133 117 86 86 86 81 93 110 124 144 141 144 147 148 148 149 149 150 151 152 151 150 149 148 147 147 146 144 142 139 137 135 133 133 133 131 130 129 129
230 190 124 58 35 170 279 252 122 104 118 106 87 61 78 112 113 123 144 142 139 142 146 152 149 150 152 153 156 158 158 158 158 158 158 157 157 158 156 155 154 152 150 149 148 148 151 154 161
174 63 49 51 287 236 206 255 143 96 85 80 98 70 51 108 125 135 141 144 141 143 148 154 152 152 154 157 160 163 164 165 165 165 166 166 167 169 169 169 170 170 170 170 169 172 176 182 192
92 71 38 338 275 237 222 213 143 100 92 86 92 84 39 43 118 134 144 147 145 145 151 156 155 156 158 161 164 167 169 171 172 172 173 174 176 177 178 179 181 184 187 189 189 192 195 202 211
47 62 48 306 295 270 220 162 125 107 111 111 103 101 78 123 130 144 148 150 150 151 154 158 160 160 162 165 168 171 174 176 178 180 182 183 185 187 187 188 190 193 198 202 205 207 209 214 220
107 81 254 277 283 280 323 132 128 116 123 135 125 105 122 149 148 151 149 148 149 153 157 161 164 166 168 170 173 176 179 181 184 187 189 191 193 195 197 198 200 204 208 212 215 219 222 225 227
145 91 323 308 325 319 329 49 140 130 125 129 124 132 162 174 151 148 145 144 148 156 162 164 165 166 168 172 178 181 184 187 190 193 196 199 201 203 206 206 210 213 216 219 222 225 228 231 233
95 74 275 271 314 309 332 38 350 85 90 80 104 145 161 152 140 141 141 142 153 162 170 170 170 170 170 174 185 186 190 194 196 200 203 204 208 210 214 217 218 222 224 225 227 230 234 236 239
104 155 237 240 276 300 343 21 15 72 80 80 80 100 134 143 146 150 157 162 168 172 179 179 178 177 175 184 184 187 194 197 199 200 206 203 203 214 220 228 228 229 230 231 232 234 237 240 239
197 216 250 275 279 319 355 356 29 100 120 161 150 149 152 155 160 162 166 171 176 177 179 182 183 182 182 190 181 190 199 199 207 208 210 210 210 220 227 227 236 235 235 234 235 235 234 232 231
260 271 270 271 292 318 320 336 355 127 193 179 161 158 160 167 176 177 174 176 176 177 185 182 183 184 190 191 187 190 199 202 209 215 214 211 215 221 224 226 227 225 224 222 224 227 232 236 237
266 270 287 296 317 298 289 300 304 285 181 156 156 159 166 173 183 188 179 173 175 182 186 184 184 187 190 192 192 194 203 208 211 212 214 213 214 221 224 226 224 221 214 214 220 227 234 237 239
267 287 305 310 320 315 316 303 318 269 163 147 153 165 171 175 176 173 175 172 178 185 186 182 186 190 188 190 193 197 203 212 212 214 216 214 216 221 224 226 221 217 212 214 217 223 227 230 232
301 316 322 307 299 285 0 314 283 250 150 150 159 157 146 145 150 165 173 170 178 180 176 182 188 189 191 192 193 196 199 205 212 217 218 216 215 217 220 223 220 214 208 208 214 222 222 228 232
343 3 315 292 280 266 155 254 285 272 123 129 128 123 115 110 116 130 134 129 133 141 159 175 190 191 197 202 201 199 203 205 212 218 219 219 218 217 217 219 220 212 203 201 207 210 219 230 231
4 328 285 293 276 227 158 212 273 97 109 113 114 110 105 91 83 86 96 101 109 119 133 150 163 184 200 207 240 256 245 236 236 236 234 228 225 222 217 219 220 208 203 204 215 209 206 221 226
265 275 292 302 317 76 123 155 273 77 111 117 114 108 100 93 89 90 91 96 97 97 105 109 92 126 161 166 238 270 273 264 257 250 250 244 234 229 221 224 222 209 207 213 216 217 212 218 219
239 283 309 311 334 46 66 76 343 14 99 123 121 117 111 103 99 88 89 91 88 79 80 83 80 61 97 187 217 249 264 265 261 252 249 250 244 235 225 230 225 216 218 221 217 213 220 229 207
300 357 340 338 355 41 32 360 338 349 168 161 144 132 126 117 97 88 93 94 98 101 96 91 96 97 118 226 222 229 242 252 248 256 261 257 255 251 242 230 226 220 221 225 221 214 216 224 194
1 54 35 0 2 26 45 353 342 342 37 85 109 125 130 130 127 116 104 104 106 110 120 124 129 127 153 235 264 286 292 297 304 294 282 274 269 263 257 247 236 228 221 229 227 218 215 225 220
324 353 38 24 33 328 48 319 303 328 31 81 122 130 136 135 135 133 127 121 124 139 143 139 137 130 136 109 50 308 289 286 284 286 286 289 281 274 265 255 244 236 231 233 233 226 216 214 225
254 0 19 353 357 345 349 81 290 337 9 188 175 158 162 163 156 157 158 162 163 162 157 151 147 150 153 106 104 305 291 278 290 303 307 302 294 285 281 272 264 255 244 238 235 230 220 214 217
44 32 12 27 55 5 281 188 278 262 218 192 198 189 189 183 177 180 185 177 175 167 158 155 152 167 162 132 85 345 304 308 316 317 316 312 306 300 298 290 271 260 252 245 239 232 227 222 219
65 71 27 1 8 272 280 190 254 252 199 171 182 208 210 199 189 193 196 194 190 180 173 168 166 180 182 155 134 68 311 318 315 313 314 314 310 305 301 298 285 273 260 251 241 232 230 225 218
162 128 147 195 235 282 323 247 259 234 188 180 190 209 214 210 206 204 204 199 194 187 181 176 174 180 181 167 174 180 335 335 316 314 310 308 302 297 298 296 287 278 269 261 245 236 233 224 218
177 199 167 144 225 320 300 290 305 286 238 223 219 219 219 218 216 213 208 200 196 193 190 181 177 181 184 180 175 165 124 21 319 318 319 313 308 307 311 306 298 285 274 264 249 238 235 223 215
153 159 82 97 145 278 297 297 258 253 249 253 244 236 236 232 226 218 208 204 202 196 190 179 176 181 186 180 176 161 157 197 300 323 326 319 316 317 321 322 317 306 293 283 259 248 234 216 204
346 34 108 132 161 166 255 273 267 240 235 227 241 248 249 245 238 226 218 211 200 192 185 183 184 179 178 179 174 161 173 194 274 314 311 314 316 320 324 327 324 317 310 316 315 309 97 130 137
140 155 140 154 248 191 192 269 318 320 337 350 343 352 349 331 301 261 233 214 200 199 197 193 190 184 186 182 176 175 175 175 199 281 301 313 318 321 323 325 331 336 332 349 42 80 78 75 78